TimeMST,TemperatureF,Dew PointF,Humidity,Sea Level PressureIn,VisibilityMPH,Wind Direction,Wind SpeedMPH,Gust SpeedMPH,PrecipitationIn,Events,Conditions,WindDirDegrees,DateUTC
12:25 AM,12.2,8.6,85,30.03,4.0,SW,5.8,-,N/A,,Overcast,230,2013-01-01 07:25:00
12:43 AM,10.4,8.6,92,30.03,8.0,SW,5.8,-,N/A,,Mostly Cloudy,220,2013-01-01 07:43:00
12:53 AM,10.0,7.0,87,30.22,8.0,SW,6.9,-,N/A,,Mostly Cloudy,220,2013-01-01 07:53:00
1:53 AM,10.9,8.1,88,30.25,7.0,WSW,5.8,-,N/A,,Overcast,240,2013-01-01 08:53:00
2:53 AM,10.9,8.1,88,30.25,8.0,West,9.2,-,0.00,,Overcast,260,2013-01-01 09:53:00
3:43 AM,8.6,5.0,85,30.06,5.0,West,10.4,-,0.00,,Overcast,270,2013-01-01 10:43:00
3:53 AM,9.0,6.1,88,30.26,9.0,West,9.2,-,0.00,,Overcast,270,2013-01-01 10:53:00
4:23 AM,8.6,6.8,92,30.06,3.0,West,11.5,-,N/A,,Overcast,270,2013-01-01 11:23:00
4:31 AM,8.6,6.8,92,30.06,2.0,West,11.5,-,N/A,,Overcast,270,2013-01-01 11:31:00
4:37 AM,8.6,6.8,92,30.06,1.5,West,10.4,-,N/A,,Overcast,270,2013-01-01 11:37:00
4:42 AM,8.6,5.0,85,30.05,1.0,West,9.2,-,N/A,,Overcast,270,2013-01-01 11:42:00
4:51 AM,6.8,5.0,92,30.05,0.8,West,9.2,-,N/A,,Mist,270,2013-01-01 11:51:00
4:53 AM,7.0,5.0,92,30.26,1.0,West,9.2,-,N/A,,Mist,270,2013-01-01 11:53:00
4:56 AM,6.8,3.2,85,30.05,1.2,West,10.4,-,N/A,,Mostly Cloudy,260,2013-01-01 11:56:00
5:01 AM,6.8,3.2,85,30.05,0.8,West,11.5,-,N/A,,Mist,260,2013-01-01 12:01:00
5:16 AM,6.8,3.2,85,30.05,1.5,WSW,8.1,-,N/A,,Partly Cloudy,250,2013-01-01 12:16:00
5:20 AM,6.8,3.2,85,30.05,3.0,WSW,9.2,-,N/A,,Partly Cloudy,250,2013-01-01 12:20:00
5:53 AM,7.0,3.0,84,30.29,5.0,West,9.2,-,N/A,,Partly Cloudy,270,2013-01-01 12:53:00
6:09 AM,8.6,6.8,92,30.07,3.0,West,15.0,-,N/A,,Mostly Cloudy,270,2013-01-01 13:09:00
6:16 AM,8.6,5.0,85,30.08,2.5,West,13.8,-,N/A,,Mostly Cloudy,270,2013-01-01 13:16:00
6:29 AM,8.6,5.0,85,30.08,1.2,West,13.8,-,N/A,,Overcast,270,2013-01-01 13:29:00
6:31 AM,8.6,5.0,85,30.08,0.8,West,12.7,-,N/A,,Overcast,270,2013-01-01 13:31:00
6:53 AM,7.0,5.0,92,30.31,1.0,West,10.4,-,N/A,,Mist,260,2013-01-01 13:53:00
7:00 AM,6.8,5.0,92,30.09,1.5,West,10.4,-,N/A,,Overcast,270,2013-01-01 14:00:00
7:07 AM,8.6,5.0,85,30.09,3.0,West,10.4,-,N/A,,Overcast,270,2013-01-01 14:07:00
7:14 AM,8.6,5.0,85,30.09,1.5,West,9.2,-,N/A,,Overcast,270,2013-01-01 14:14:00
7:16 AM,8.6,5.0,85,30.09,1.0,West,8.1,-,N/A,,Overcast,270,2013-01-01 14:16:00
7:23 AM,8.6,5.0,85,30.09,0.2,West,10.4,-,N/A,Fog,Light Freezing Fog,270,2013-01-01 14:23:00
7:53 AM,6.1,3.9,91,30.33,0.2,WSW,9.2,-,N/A,Fog,Light Freezing Fog,250,2013-01-01 14:53:00
8:53 AM,6.1,3.0,87,30.36,0.2,West,10.4,-,N/A,Fog,Light Freezing Fog,260,2013-01-01 15:53:00
9:40 AM,6.8,3.2,85,30.14,1.2,West,11.5,-,0.00,,Overcast,260,2013-01-01 16:40:00
9:50 AM,6.8,3.2,85,30.14,1.0,WSW,10.4,-,0.00,Snow,Blowing Snow,250,2013-01-01 16:50:00
9:53 AM,7.0,3.9,87,30.37,1.2,WSW,11.5,-,0.00,Snow,Blowing Snow,250,2013-01-01 16:53:00
10:01 AM,6.8,3.2,85,30.14,2.0,West,11.5,-,N/A,Snow,Blowing Snow,260,2013-01-01 17:01:00
10:05 AM,8.6,5.0,85,30.14,3.0,West,9.2,-,N/A,,Scattered Clouds,260,2013-01-01 17:05:00
10:53 AM,10.0,7.0,87,30.35,4.0,West,11.5,-,N/A,,Clear,260,2013-01-01 17:53:00
11:53 AM,15.1,10.9,84,30.31,7.0,WSW,10.4,-,N/A,,Clear,250,2013-01-01 18:53:00
12:53 PM,17.1,12.9,84,30.29,10.0,WSW,8.1,-,N/A,,Clear,240,2013-01-01 19:53:00
1:53 PM,18.0,12.9,81,30.26,10.0,WSW,11.5,-,N/A,,Clear,250,2013-01-01 20:53:00
2:53 PM,19.0,12.0,74,30.25,10.0,WSW,9.2,-,N/A,,Clear,240,2013-01-01 21:53:00
3:53 PM,17.1,10.0,74,30.26,10.0,West,11.5,-,N/A,,Clear,260,2013-01-01 22:53:00
4:53 PM,10.9,5.0,77,30.27,10.0,WSW,11.5,-,N/A,,Clear,250,2013-01-01 23:53:00
5:53 PM,17.1,8.1,68,30.27,10.0,WSW,12.7,-,N/A,,Clear,240,2013-01-02 00:53:00
6:53 PM,15.1,6.1,68,30.28,10.0,WSW,13.8,-,N/A,,Clear,240,2013-01-02 01:53:00
7:53 PM,16.0,6.1,65,30.29,10.0,WSW,16.1,-,N/A,,Clear,240,2013-01-02 02:53:00
8:53 PM,15.1,5.0,64,30.29,10.0,WSW,13.8,-,N/A,,Clear,240,2013-01-02 03:53:00
9:53 PM,15.1,5.0,64,30.29,10.0,WSW,15.0,-,N/A,,Clear,240,2013-01-02 04:53:00
10:53 PM,10.9,3.9,73,30.32,10.0,West,12.7,-,N/A,,Mostly Cloudy,280,2013-01-02 05:53:00
11:53 PM,15.1,7.0,70,30.29,10.0,West,15.0,-,N/A,,Mostly Cloudy,260,2013-01-02 06:53:00